Volver al catálogo

STARLINK-35095

ActivoComunicacionesVLEO
NORAD 65425·PAYLOAD·🇺🇸 United States

Lanzado Aug 31, 2025 desde Cape Canaveral Space Force Station

Loading…

Próximos Pases (próximas 24 horas)

TLE

ActualizadoSource: CelesTrak SupGP

Época: Sep 14, 2026, 14:18 UTC

1 65425C 25192X   26257.59631944 -.00031121  00000+0 -10004-2 0  2577
2 65425  53.1590  73.7780 0001253  92.1257 223.3833 15.31730222    17

Sigue STARLINK-35095 en tiempo real con AllMySat

Download on the App Store